[[{"header":{"parameterUnit":"m.s-1","parameterCategory":2,"la1":30.2991,"la2":30.254,"lo1":-89.0895,"lo2":-89.0444,"dy":0.0017,"dx":0.0017,"nx":28,"ny":28,"refTime":"2024-09-28T03:00:00:Z","depth":"0","parameterNumber":2,"parameterNumberName":"U-component_of_CURRENTS"},"data":[0,0,0,0,0,0,0,0,0,0,0,0,0,0,0,0,0,0,0,0,0,0,0,0,0,0,0,0,0,0,0,0,0,0,0,0,0,0,0,0,0,0,0,0,0,0,0,0,0,0,0,0,0,0,0,0,0,0,0.164,0.164,0,0.1665,0.1665,0.1665,0.1687,0.1688,0.1688,0.1688,0.1744,0.1745,0.1746,0,0,0,0,0,0,0,0,0,0,0,0,0,0.16,0.16,0.164,0.164,0.164,0.1665,0.1665,0.1665,0.1687,0.1688,0.1688,0.1688,0.1743,0.1745,0.1746,0,0,0,0,0,0,0,0,0,0,0,0,0,0.162,0.1601,0.164,0.1655,0.1656,0.1665,0.1665,0.1665,0.1687,0.1688,0.1688,0.1689,0.1743,0.1745,0.1746,0.1749,0,0,0.1752,0.1753,0,0,0,0,0,0,0,0,0.1619,0.1621,0.1652,0.1654,0.1655,0.1674,0.1671,0.1695,0.1687,0.1675,0.1688,0.1689,0.1723,0.1726,0.1729,0.1752,0.1754,0.1752,0.1753,0.1754,0.1754,0,0,0,0,0,0,0,0.1617,0.162,0.1649,0.1652,0.1654,0.1656,0.1659,0.1676,0.1697,0.1676,0.1678,0.1681,0.1724,0.1728,0.1731,0.1755,0.1752,0.1754,0.1755,0.1755,0.1816,0.1817,0,0,0,0,0,0,0.1615,0.1619,0.1649,0.165,0.1638,0.1656,0.166,0.1667,0.1696,0.1701,0.1681,0.1682,0.1724,0.1729,0.1733,0.18,0.1754,0.1756,0.1757,0.1816,0.1817,0.1817,0,0,0,0,0,0,0.1614,0.1617,0.1648,0.1635,0.1639,0.1657,0.1664,0.1667,0.1675,0.1699,0.1704,0.1685,0.1725,0.173,0.1756,0.18,0.1756,0.1758,0.1815,0.1816,0.1817,0.1894,0,0,0,0,0,0,0.1613,0.1617,0.162,0.1635,0.164,0.1667,0.1664,0.1668,0.1676,0.1678,0.1705,0.171,0.1725,0.1753,0.1758,0.1801,0.176,0.1815,0.1816,0.1817,0.189,0.1897,0.1903,0,0,0,0,0,0.1611,0.1619,0.162,0.1624,0.1644,0.1668,0.1671,0.1684,0.1676,0.1689,0.1701,0.1709,0.1763,0.1755,0.176,0.1806,0.1814,0.1815,0.1816,0.1888,0.1896,0.1902,0,0,0,0,0,0,0.1608,0.1623,0.1624,0.1637,0.1656,0.1672,0.1683,0.1682,0.17,0.1701,0.1715,0.1722,0.1762,0.176,0.1751,0.1821,0.179,0.1793,0.1843,0.185,0.1856,0.191,0.1761,0,0,0,0,0,0.1606,0.1616,0.1632,0.1645,0.1653,0.1664,0.1672,0.1681,0.1698,0.1705,0.1724,0.1742,0.1769,0.179,0.1807,0.1844,0.1888,0.1874,0.188,0.1885,0.193,0.2008,0.2027,0.1821,0.1821,0.1821,0,0,0.1608,0.1617,0.1623,0.1644,0.1657,0.1691,0.1671,0.169,0.173,0.1709,0.1763,0.1761,0.1779,0.1828,0.1846,0.1836,0.1965,0.1887,0.1892,0.1935,0.2011,0.2032,0.205,0.1822,0.1822,0.1822,0,0,0.1629,0.1627,0.1648,0.1669,0.1692,0.1703,0.1709,0.173,0.1753,0.1791,0.179,0.1821,0.1849,0.189,0.1908,0.1955,0.1989,0.1943,0.2034,0.2108,0.2127,0.2144,0.2232,0.2257,0.1954,0.1954,0.1955,0,0.163,0.1662,0.1659,0.1694,0.172,0.1713,0.1755,0.1781,0.181,0.1857,0.1821,0.19,0.1896,0.1992,0.2002,0.1978,0.2024,0.2008,0.2121,0.2139,0.2156,0.2241,0.2268,0.1958,0.1958,0.1957,0.1957,0,0.1677,0.1705,0.1722,0.1766,0.1794,0.1824,0.1861,0.19,0.1911,0.1951,0.2033,0.2026,0.2088,0.2074,0.2055,0.2169,0.2166,0.2116,0.2114,0.2182,0.2266,0.2293,0.1964,0.1962,0.1961,0.196,0,0,0.1668,0.1739,0.1746,0.1783,0.1834,0.1861,0.1943,0.2028,0.2095,0.213,0.2229,0.2263,0.2267,0.2287,0.2261,0.2315,0.2447,0.2269,0.2271,0.2378,0.2636,0.2609,0.2635,0.2415,0.242,0.2424,0.2652,0,0.1704,0.1785,0.1812,0.1891,0.1937,0.1977,0.2053,0.2134,0.2189,0.228,0.2327,0.2386,0.2346,0.2354,0.242,0.2429,0.2518,0.2392,0.2537,0.2543,0.2528,0.2665,0.2598,0.2794,0.2677,0.2682,0.2685,0,0.1739,0.1792,0.1876,0.1968,0.1991,0.2035,0.2158,0.2227,0.2369,0.2416,0.2521,0.254,0.2653,0.2561,0.2725,0.2646,0.2673,0.2678,0.2685,0.2662,0.2565,0.2703,0.2845,0.2823,0.2725,0.2722,0.2719,0,0.1734,0.1833,0.1899,0.193,0.2034,0.2086,0.2144,0.2277,0.2349,0.2502,0.2553,0.2709,0.2746,0.2841,0.2869,0.281,0.3024,0.2939,0.2967,0.2965,0.2943,0.2931,0.3103,0.3085,0.3084,0.3084,0.3083,0,0.1753,0.1804,0.1898,0.1929,0.2017,0.209,0.2191,0.228,0.2408,0.2499,0.2609,0.2687,0.2808,0.2925,0.2962,0.3075,0.3125,0.305,0.3044,0.2964,0.2951,0.2952,0.2925,0.3092,0.309,0.3089,0.3087,0,0.1718,0.1789,0.1858,0.1966,0.2009,0.2062,0.2186,0.2261,0.2378,0.2493,0.2537,0.2713,0.2876,0.3002,0.3152,0.3175,0.3222,0.3292,0.3201,0.318,0.3158,0.3136,0.3156,0.3081,0.3401,0.3402,0.3403,0,0.1707,0.1742,0.1853,0.19,0.1939,0.2036,0.2105,0.2238,0.2311,0.2492,0.254,0.2734,0.2856,0.3119,0.3223,0.3382,0.3273,0.3389,0.3261,0.3219,0.3191,0.2995,0.2915,0.3272,0.3272,0.3272,0.3272,0,0.1681,0.1711,0.1763,0.1847,0.1915,0.1995,0.2096,0.2143,0.2291,0.2383,0.2513,0.2622,0.289,0.3051,0.3267,0.3333,0.3267,0.3387,0.3379,0.3169,0.2937,0.2839,0.3064,0.327,0.327,0.327,0.327,0.327,0.1655,0.1664,0.1731,0.1796,0.1867,0.1922,0.1954,0.2054,0.2143,0.2261,0.2421,0.2569,0.2883,0.318,0.3217,0.3326,0.3237,0.3308,0.3312,0.3136,0.2984,0.3215,0.3367,0.3368,0.3368,0.3369,0.3369,0,0.1645,0.1653,0.1692,0.1756,0.1774,0.1844,0.1926,0.1941,0.1992,0.2172,0.2288,0.2616,0.2839,0.3068,0.3323,0.3294,0.3083,0.3261,0.3003,0.2947,0.3227,0.3141,0.3205,0.3205,0.3205,0.3205,0.3205,0.3205,0.1646,0.1656,0.1651,0.1654,0.1682,0.1699,0.1714,0.1746,0.186,0.2037,0.2231,0.2432,0.2888,0.3282,0.3377,0.3293,0.3088,0.2966,0.2939,0.3191,0.3194,0.3197,0.3111,0.3169,0.3169,0.252,0.2516,0.2513]},{"header":{"parameterUnit":"m.s-1","parameterCategory":2,"la1":30.2991,"la2":30.254,"lo1":-89.0895,"lo2":-89.0444,"dy":0.0017,"dx":0.0017,"nx":28,"ny":28,"refTime":"2024-09-28T03:00:00:Z","depth":"0","parameterNumber":3,"parameterNumberName":"V-component_of_CURRENTS"},"data":[0,0,0,0,0,0,0,0,0,0,0,0,0,0,0,0,0,0,0,0,0,0,0,0,0,0,0,0,0,0,0,0,0,0,0,0,0,0,0,0,0,0,0,0,0,0,0,0,0,0,0,0,0,0,0,0,0,0,0.0116,0.0116,0,0.0048,0.0047,0.0046,-0.0015,-0.0015,-0.0016,-0.0017,-0.011,-0.0112,-0.0113,0,0,0,0,0,0,0,0,0,0,0,0,0,0.0173,0.0172,0.0117,0.0116,0.0115,0.0048,0.0047,0.0046,-0.0015,-0.0015,-0.0016,-0.0017,-0.0109,-0.0111,-0.0114,0,0,0,0,0,0,0,0,0,0,0,0,0,0.0131,0.0172,0.0117,0.0077,0.0073,0.0048,0.0047,0.0046,-0.0014,-0.0015,-0.0016,-0.0017,-0.0108,-0.0111,-0.0114,-0.0111,0,0,-0.0122,-0.0124,0,0,0,0,0,0,0,0,0.0133,0.0128,0.0084,0.008,0.0075,0.0025,0.0033,-0.0008,-0.0014,0.0018,-0.0017,-0.0018,-0.0066,-0.0072,-0.0083,-0.0115,-0.0119,-0.0123,-0.0124,-0.0126,-0.0126,0,0,0,0,0,0,0,0.0136,0.0131,0.0089,0.0083,0.0078,0.0055,0.0048,0.0025,-0.0018,0.0015,0.0011,0.0004,-0.0069,-0.0081,-0.0086,-0.0121,-0.0123,-0.0125,-0.0127,-0.0128,-0.0182,-0.0182,0,0,0,0,0,0,0.0148,0.0134,0.0091,0.0087,0.0103,0.0055,0.0047,0.0041,-0.0018,-0.0027,0.0005,0.0002,-0.0075,-0.0083,-0.009,-0.0092,-0.0126,-0.0128,-0.013,-0.0182,-0.0182,-0.0181,0,0,0,0,0,0,0.0149,0.0145,0.0094,0.0109,0.0101,0.0056,0.0049,0.0041,0.0028,-0.0025,-0.0035,0.0001,-0.0076,-0.0086,-0.0112,-0.0096,-0.0129,-0.0132,-0.0182,-0.0182,-0.0182,-0.0096,0,0,0,0,0,0,0.0151,0.0146,0.015,0.011,0.0101,0.0088,0.005,0.004,0.0026,0.002,-0.0032,-0.0041,-0.0078,-0.0107,-0.0115,-0.0101,-0.0134,-0.0183,-0.0182,-0.0182,-0.0099,-0.0092,-0.0087,0,0,0,0,0,0.0154,0.0164,0.0151,0.0146,0.0107,0.0089,0.0083,0.0046,0.0027,0.0029,-0.0012,-0.004,-0.011,-0.0109,-0.0118,-0.0104,-0.0183,-0.0182,-0.0182,-0.0101,-0.0094,-0.0087,0,0,0,0,0,0,0.0193,0.0157,0.0142,0.0141,0.0121,0.0079,0.0078,0.0054,0.0025,0.0017,-0.0035,-0.0047,-0.0065,-0.0097,-0.0095,-0.0121,-0.0151,-0.0153,-0.0088,-0.0081,-0.0075,-0.0043,-0.0136,0,0,0,0,0,0.0205,0.02,0.0166,0.0168,0.016,0.0122,0.0111,0.0088,0.0054,0.004,0.0003,-0.0038,-0.0069,-0.0084,-0.0117,-0.0125,-0.0152,-0.0125,-0.0119,-0.0113,-0.0094,-0.0139,-0.0135,-0.018,-0.018,-0.018,0,0,0.0221,0.0201,0.0199,0.0176,0.0155,0.0157,0.0113,0.0102,0.0102,0.0036,0.0024,-0.0018,-0.0067,-0.0082,-0.0093,-0.0106,-0.0112,-0.0113,-0.0107,-0.0091,-0.0138,-0.0134,-0.013,-0.0179,-0.0179,-0.018,0,0,0.0254,0.0235,0.0243,0.0233,0.021,0.0187,0.0189,0.0152,0.0133,0.0116,0.0068,0.0041,-0.0009,-0.0036,-0.0057,-0.0036,-0.0081,-0.0054,0.0007,-0.0038,-0.0034,-0.0031,-0.0041,-0.004,-0.0048,-0.0048,-0.0048,0,0.0277,0.0282,0.0245,0.0255,0.0255,0.0206,0.0224,0.0202,0.0162,0.0162,0.0122,0.0061,0.0016,0.0009,0.001,-0.002,-0.0046,-0.0014,-0.0028,-0.0026,-0.0024,-0.0036,-0.0035,-0.0044,-0.0045,-0.0045,-0.0045,0,0.0319,0.0325,0.0332,0.0327,0.0321,0.0329,0.0297,0.0295,0.0262,0.024,0.022,0.015,0.0121,0.0095,0.0057,0.0053,0.0032,-0.0016,-0.004,-0.0014,-0.0028,-0.0029,-0.0038,-0.004,-0.0041,-0.0042,0,0,0.0359,0.0363,0.0364,0.0381,0.0362,0.0365,0.0374,0.0375,0.04,0.0338,0.0356,0.0286,0.0251,0.0224,0.0168,0.0127,0.0114,0.0067,0.0063,0.007,0.0039,0.0031,0.0029,0.0055,0.0054,0.0054,0.0032,0,0.0404,0.0444,0.0429,0.0471,0.0488,0.0465,0.0486,0.0481,0.046,0.0465,0.0393,0.038,0.0298,0.0286,0.0232,0.0144,0.0111,0.0126,0.0002,0.0,-0.0001,0.0027,0.0006,-0.0015,0.0031,0.003,0.003,0,0.045,0.0467,0.052,0.0553,0.0561,0.0582,0.0618,0.0633,0.063,0.0615,0.0584,0.0523,0.0474,0.0384,0.0257,0.0267,0.017,0.0091,0.0087,0.0051,-0.001,-0.004,-0.002,-0.017,0.0028,0.0028,0.0028,0,0.0496,0.0532,0.0581,0.0591,0.062,0.065,0.0669,0.0685,0.0721,0.0716,0.0727,0.0649,0.0613,0.0476,0.0314,0.0283,0.0169,0.0102,0.001,0.0009,-0.0044,-0.0049,-0.0174,0.0014,0.0014,0.0014,0.0014,0,0.0547,0.0581,0.0612,0.0639,0.0712,0.0711,0.0796,0.0806,0.0841,0.0894,0.0809,0.0817,0.0627,0.0532,0.0369,0.0204,0.0211,0.0041,0.0003,-0.0013,-0.0015,-0.0179,-0.0275,0.0014,0.0014,0.0014,0.0014,0,0.058,0.0605,0.0664,0.0713,0.0737,0.079,0.0878,0.0945,0.0957,0.1018,0.1019,0.0952,0.0832,0.0646,0.0443,0.029,0.0032,0.0061,0.0079,0.0042,-0.019,-0.028,-0.0421,-0.0496,-0.0037,-0.0038,-0.0038,0,0.0599,0.0635,0.0717,0.0772,0.0796,0.088,0.0954,0.1002,0.107,0.1098,0.1129,0.1046,0.0994,0.0721,0.0441,0.0189,0.0026,0.0013,-0.0059,-0.0185,-0.0315,-0.0364,-0.0421,-0.009,-0.0091,-0.0091,-0.0092,0,0.0633,0.0669,0.072,0.0822,0.0908,0.1016,0.1109,0.1181,0.1239,0.1276,0.1307,0.1272,0.1013,0.076,0.0428,0.0231,-0.01,-0.0006,-0.0162,-0.0374,-0.0413,-0.0509,-0.0069,-0.0096,-0.0096,-0.0096,-0.0095,-0.0095,0.0663,0.0707,0.0784,0.0879,0.0987,0.1122,0.1218,0.1311,0.1417,0.1485,0.145,0.1443,0.1078,0.0617,0.0325,-0.0159,-0.016,-0.0312,-0.0408,-0.0442,-0.0528,-0.007,-0.0131,-0.0131,-0.0131,-0.0131,-0.013,0,0.0698,0.0749,0.0838,0.0968,0.1085,0.1135,0.1306,0.1405,0.1522,0.1608,0.1636,0.1514,0.1015,0.0554,-0.0111,-0.048,-0.0623,-0.0675,-0.0774,-0.0814,-0.0432,-0.0449,-0.0552,-0.0551,-0.0551,-0.0551,-0.0551,-0.0551,0.0724,0.0804,0.0844,0.1019,0.1116,0.1292,0.1394,0.1527,0.164,0.1792,0.1859,0.1891,0.1621,0.0284,-0.0571,-0.0809,-0.108,-0.1151,-0.1251,-0.1025,-0.0999,-0.0975,-0.1012,-0.1231,-0.1232,-0.159,-0.1594,-0.1597]}],[{"header":{"parameterUnit":"m.s-1","parameterCategory":2,"la1":30.2991,"la2":30.254,"lo1":-89.0895,"lo2":-89.0444,"dy":0.0017,"dx":0.0017,"nx":28,"ny":28,"refTime":"2024-09-28T03:00:00:Z","depth":"2","parameterNumber":2,"parameterNumberName":"U-component_of_CURRENTS"},"data":[0,0,0,0,0,0,0,0,0,0,0,0,0,0,0,0,0,0,0,0,0,0,0,0,0,0,0,0,0,0,0,0,0,0,0,0,0,0,0,0,0,0,0,0,0,0,0,0,0,0,0,0,0,0,0,0,0,0,0.1535,0.1535,0,0.1558,0.1558,0.1558,0.1583,0.1583,0.1583,0.1583,0.1633,0.1634,0.1635,0,0,0,0,0,0,0,0,0,0,0,0,0,0.1496,0.1497,0.1535,0.1535,0.1536,0.1558,0.1558,0.1558,0.1582,0.1583,0.1583,0.1584,0.1633,0.1634,0.1635,0,0,0,0,0,0,0,0,0,0,0,0,0,0.1516,0.1497,0.1535,0.155,0.1552,0.1558,0.1558,0.1558,0.1582,0.1583,0.1583,0.1584,0.1633,0.1634,0.1636,0.1635,0,0,0.164,0.1641,0,0,0,0,0,0,0,0,0.1514,0.1517,0.1548,0.1549,0.1551,0.1568,0.1562,0.1585,0.1582,0.1571,0.1583,0.1584,0.1613,0.1617,0.162,0.1638,0.164,0.164,0.1641,0.1642,0.1642,0,0,0,0,0,0,0,0.1513,0.1516,0.1544,0.1548,0.155,0.155,0.1554,0.1567,0.159,0.1572,0.1574,0.1576,0.1615,0.1618,0.1621,0.164,0.164,0.1642,0.1643,0.1643,0.1694,0.1695,0,0,0,0,0,0,0.151,0.1515,0.1544,0.1545,0.1533,0.155,0.1554,0.1562,0.1589,0.1594,0.1575,0.1577,0.1615,0.1619,0.1623,0.1686,0.1642,0.1643,0.1644,0.1694,0.1694,0.1695,0,0,0,0,0,0,0.151,0.1513,0.1543,0.153,0.1534,0.1551,0.1559,0.1562,0.1571,0.1591,0.1596,0.1582,0.1616,0.1621,0.1644,0.1685,0.1644,0.1646,0.1693,0.1694,0.1695,0.1772,0,0,0,0,0,0,0.1508,0.1513,0.1516,0.153,0.1534,0.1561,0.1559,0.1562,0.1571,0.1574,0.1598,0.1603,0.1616,0.1642,0.1646,0.1687,0.1647,0.1693,0.1694,0.1694,0.1769,0.1775,0.178,0,0,0,0,0,0.1507,0.1515,0.1516,0.152,0.1539,0.1562,0.1565,0.1578,0.1571,0.1585,0.1596,0.1603,0.165,0.1643,0.1648,0.1691,0.1692,0.1693,0.1694,0.1766,0.1774,0.178,0,0,0,0,0,0,0.1504,0.1518,0.152,0.1533,0.1551,0.1566,0.1577,0.1577,0.1594,0.1596,0.1607,0.1614,0.1651,0.1647,0.164,0.1703,0.1672,0.1674,0.1725,0.1733,0.1738,0.1798,0.1648,0,0,0,0,0,0.1502,0.1512,0.1528,0.1541,0.1549,0.156,0.1568,0.1578,0.1593,0.16,0.1618,0.1632,0.1656,0.1675,0.1689,0.1723,0.1761,0.175,0.1756,0.1761,0.181,0.1876,0.1894,0.1698,0.1698,0.1698,0,0,0.1505,0.1514,0.152,0.154,0.1553,0.1584,0.1567,0.1587,0.1625,0.1603,0.1655,0.1652,0.1665,0.1709,0.1726,0.1716,0.1835,0.1762,0.1767,0.1814,0.1879,0.1899,0.1916,0.1699,0.1698,0.1698,0,0,0.1525,0.1525,0.1545,0.1565,0.1587,0.1598,0.1604,0.1624,0.1649,0.1685,0.1683,0.1711,0.1734,0.1771,0.1786,0.183,0.1858,0.1816,0.191,0.1973,0.1991,0.2007,0.2085,0.2108,0.1827,0.1827,0.1827,0,0.1528,0.1557,0.1555,0.1589,0.1613,0.1607,0.1648,0.1673,0.1702,0.1749,0.1714,0.1786,0.178,0.1868,0.188,0.1853,0.1892,0.1885,0.1986,0.2003,0.2018,0.2094,0.2118,0.1831,0.183,0.183,0.183,0,0.157,0.1598,0.1613,0.1656,0.1683,0.1711,0.1748,0.1787,0.18,0.184,0.192,0.1909,0.1968,0.1952,0.1933,0.204,0.2034,0.1981,0.1979,0.2044,0.2118,0.2142,0.1836,0.1835,0.1834,0.1833,0,0,0.1565,0.163,0.1637,0.167,0.172,0.1745,0.1827,0.1911,0.1976,0.2012,0.2107,0.2141,0.2146,0.2163,0.2135,0.2183,0.2305,0.2137,0.2138,0.2237,0.2469,0.2344,0.2358,0.2268,0.2272,0.2276,0.2479,0,0.1599,0.1671,0.1698,0.1771,0.1811,0.1854,0.1931,0.2012,0.2066,0.2153,0.2199,0.2257,0.2223,0.2231,0.229,0.2291,0.2372,0.2257,0.2375,0.238,0.2278,0.2383,0.2189,0.2343,0.2502,0.2506,0.2509,0,0.1633,0.1677,0.1754,0.1841,0.1863,0.1908,0.203,0.2099,0.2238,0.2287,0.2389,0.2407,0.2517,0.2428,0.2576,0.2504,0.2522,0.2518,0.2525,0.2409,0.2299,0.23,0.238,0.2549,0.2546,0.2543,0.254,0,0.1625,0.1715,0.1774,0.1803,0.1901,0.1957,0.2017,0.2151,0.2225,0.2373,0.2422,0.2571,0.261,0.2689,0.2698,0.2655,0.2824,0.2756,0.2686,0.2678,0.2541,0.2512,0.2886,0.2886,0.2885,0.2885,0.2884,0,0.1641,0.1689,0.1772,0.1799,0.1887,0.1959,0.2064,0.2156,0.2281,0.2372,0.2479,0.2548,0.2671,0.276,0.2781,0.282,0.2913,0.2758,0.2736,0.2556,0.2528,0.2714,0.2691,0.2892,0.2891,0.2889,0.2888,0,0.161,0.1674,0.1732,0.1833,0.188,0.1933,0.2066,0.2137,0.2259,0.2369,0.2416,0.2581,0.2699,0.2795,0.2915,0.2899,0.2947,0.2928,0.2716,0.2663,0.2754,0.2733,0.2929,0.2927,0.2925,0.2923,0.2921,0,0.16,0.1631,0.1729,0.1775,0.1814,0.1914,0.1987,0.2122,0.2193,0.2366,0.2408,0.2562,0.2632,0.2787,0.2807,0.288,0.2921,0.2732,0.2603,0.2808,0.2767,0.2748,0.273,0.2472,0.2467,0.2463,0.246,0,0.1578,0.1605,0.1646,0.1728,0.1797,0.1875,0.1982,0.2022,0.217,0.2252,0.2355,0.2417,0.2552,0.2546,0.2625,0.2625,0.2706,0.2646,0.2962,0.245,0.2382,0.2338,0.2336,0.2423,0.2427,0.243,0.2432,0.2433,0.1559,0.1561,0.1621,0.1684,0.1756,0.1805,0.1835,0.1924,0.2001,0.2088,0.2214,0.2249,0.2314,0.2323,0.2306,0.2328,0.2476,0.2413,0.2426,0.2442,0.2312,0.2239,0.2233,0.2236,0.2238,0.224,0.2241,0,0.1547,0.1559,0.1596,0.1657,0.1667,0.1744,0.1815,0.1806,0.1831,0.1945,0.201,0.1885,0.1899,0.1986,0.1955,0.1972,0.1948,0.1925,0.1892,0.193,0.1963,0.1806,0.1595,0.1593,0.1591,0.1589,0,0,0.1551,0.1557,0.1547,0.1557,0.159,0.1598,0.16,0.1588,0.1644,0.1634,0.1671,0.1803,0.1903,0.17,0.1703,0.1657,0.1774,0.1602,0.2123,0.212,0.215,0.2252,0.2054,0,0,0,0,0]},{"header":{"parameterUnit":"m.s-1","parameterCategory":2,"la1":30.2991,"la2":30.254,"lo1":-89.0895,"lo2":-89.0444,"dy":0.0017,"dx":0.0017,"nx":28,"ny":28,"refTime":"2024-09-28T03:00:00:Z","depth":"2","parameterNumber":3,"parameterNumberName":"V-component_of_CURRENTS"},"data":[0,0,0,0,0,0,0,0,0,0,0,0,0,0,0,0,0,0,0,0,0,0,0,0,0,0,0,0,0,0,0,0,0,0,0,0,0,0,0,0,0,0,0,0,0,0,0,0,0,0,0,0,0,0,0,0,0,0,0.0071,0.007,0,0.0001,0.0,-0.0001,-0.0057,-0.0057,-0.0058,-0.0058,-0.0152,-0.0154,-0.0156,0,0,0,0,0,0,0,0,0,0,0,0,0,0.0131,0.0131,0.0071,0.007,0.0069,0.0001,0.0,-0.0001,-0.0057,-0.0057,-0.0058,-0.0059,-0.0152,-0.0154,-0.0157,0,0,0,0,0,0,0,0,0,0,0,0,0,0.0087,0.0131,0.0071,0.0034,0.003,0.0001,0.0,-0.0001,-0.0057,-0.0057,-0.0058,-0.0059,-0.0151,-0.0154,-0.0157,-0.016,0,0,-0.0166,-0.0167,0,0,0,0,0,0,0,0,0.009,0.0085,0.004,0.0036,0.0032,-0.002,-0.0013,-0.0055,-0.0056,-0.0024,-0.0058,-0.0059,-0.0109,-0.0116,-0.0128,-0.0164,-0.0168,-0.0166,-0.0168,-0.017,-0.017,0,0,0,0,0,0,0,0.0093,0.0088,0.0043,0.0039,0.0034,0.0012,0.0005,-0.0021,-0.0062,-0.0027,-0.0031,-0.0038,-0.0112,-0.0124,-0.013,-0.017,-0.0166,-0.0169,-0.0171,-0.0172,-0.0233,-0.0233,0,0,0,0,0,0,0.0105,0.0091,0.0045,0.0041,0.006,0.0012,0.0004,-0.0003,-0.0062,-0.0071,-0.0037,-0.004,-0.0119,-0.0127,-0.0134,-0.014,-0.017,-0.0172,-0.0174,-0.0234,-0.0233,-0.0233,0,0,0,0,0,0,0.0106,0.0102,0.0048,0.0064,0.0056,0.0012,0.0005,-0.0004,-0.0016,-0.0069,-0.0079,-0.0041,-0.012,-0.013,-0.0157,-0.0144,-0.0174,-0.0176,-0.0234,-0.0233,-0.0233,-0.0154,0,0,0,0,0,0,0.0109,0.0103,0.0106,0.0065,0.0056,0.004,0.0005,-0.0004,-0.0019,-0.0023,-0.0075,-0.0085,-0.0121,-0.0152,-0.016,-0.0149,-0.0179,-0.0234,-0.0234,-0.0233,-0.0156,-0.0151,-0.0146,0,0,0,0,0,0.0111,0.0118,0.0107,0.0101,0.0061,0.004,0.0034,-0.0001,-0.0018,-0.0016,-0.0056,-0.0083,-0.0156,-0.0154,-0.0163,-0.0153,-0.0234,-0.0234,-0.0233,-0.0159,-0.0152,-0.0146,0,0,0,0,0,0,0.0148,0.0112,0.0099,0.0095,0.0075,0.0031,0.0029,0.0007,-0.0023,-0.0029,-0.008,-0.0092,-0.0113,-0.0144,-0.0141,-0.0172,-0.02,-0.0201,-0.014,-0.0134,-0.0128,-0.0094,-0.0181,0,0,0,0,0,0.016,0.0153,0.0119,0.0119,0.011,0.0073,0.0061,0.0039,0.0006,-0.0008,-0.0045,-0.0085,-0.0117,-0.0134,-0.0168,-0.018,-0.0207,-0.0181,-0.0176,-0.0171,-0.015,-0.0201,-0.0198,-0.0232,-0.0232,-0.0232,0,0,0.0175,0.0154,0.0152,0.0126,0.0106,0.0105,0.0064,0.0052,0.005,-0.0013,-0.0026,-0.0067,-0.0117,-0.0135,-0.0147,-0.0159,-0.0173,-0.017,-0.0165,-0.0147,-0.02,-0.0197,-0.0194,-0.0231,-0.0231,-0.0231,0,0,0.0205,0.0185,0.0192,0.018,0.0156,0.0133,0.0134,0.0097,0.0079,0.006,0.0014,-0.0013,-0.0065,-0.0093,-0.0116,-0.0099,-0.0144,-0.0116,-0.0058,-0.0108,-0.0105,-0.0103,-0.0117,-0.0117,-0.0112,-0.0111,-0.0111,0,0.0227,0.0229,0.0193,0.02,0.0198,0.0151,0.0166,0.0143,0.0102,0.0102,0.0065,0.0002,-0.0042,-0.0056,-0.0053,-0.0084,-0.0112,-0.0076,-0.0099,-0.0098,-0.0097,-0.0113,-0.0114,-0.0108,-0.0108,-0.0108,-0.0109,0,0.0263,0.0268,0.0273,0.0265,0.0258,0.0263,0.023,0.0226,0.0196,0.0173,0.0151,0.0082,0.0052,0.0025,-0.0009,-0.0019,-0.004,-0.0087,-0.011,-0.0088,-0.0107,-0.0109,-0.0102,-0.0103,-0.0105,-0.0106,0,0,0.0303,0.0301,0.0303,0.0317,0.0295,0.0296,0.0301,0.0299,0.0321,0.0261,0.0274,0.0206,0.0174,0.0147,0.0092,0.0048,0.0028,-0.0008,-0.0013,-0.0011,-0.0058,-0.0104,-0.0111,-0.0032,-0.0032,-0.0032,-0.0067,0,0.0345,0.0377,0.0362,0.0397,0.0411,0.0387,0.0406,0.0398,0.0376,0.0377,0.0305,0.0292,0.0216,0.0207,0.0149,0.006,0.0023,0.0044,-0.0089,-0.0091,-0.0127,-0.0116,-0.0119,-0.0154,-0.007,-0.007,-0.007,0,0.0388,0.04,0.0446,0.0474,0.0481,0.05,0.0532,0.0545,0.0537,0.0522,0.0488,0.0429,0.0377,0.0293,0.016,0.0175,0.0077,-0.0005,-0.0009,-0.0078,-0.0142,-0.0167,-0.0162,-0.0075,-0.0075,-0.0074,-0.0074,0,0.0434,0.0463,0.0505,0.0513,0.0536,0.0566,0.0585,0.0597,0.0632,0.0622,0.0631,0.0548,0.0516,0.0372,0.0205,0.0184,0.0045,-0.0009,-0.0137,-0.014,-0.018,-0.0186,-0.0103,-0.0103,-0.0103,-0.0103,-0.0102,0,0.0483,0.0514,0.0536,0.056,0.0631,0.0626,0.0711,0.072,0.0751,0.0801,0.0714,0.0714,0.053,0.042,0.0251,0.0058,0.0079,-0.0111,-0.0156,-0.0151,-0.0155,-0.0123,-0.0125,-0.0104,-0.0104,-0.0103,-0.0103,0,0.0519,0.0538,0.059,0.063,0.0657,0.0708,0.0798,0.0861,0.0873,0.0928,0.093,0.0856,0.0709,0.0509,0.0293,0.0135,-0.0056,-0.0132,-0.0094,-0.0135,-0.0212,-0.0209,-0.0263,-0.0265,-0.0266,-0.0268,-0.0269,0,0.0539,0.0571,0.0644,0.0696,0.072,0.0803,0.0877,0.0924,0.0988,0.1006,0.1032,0.0927,0.0832,0.0511,0.0225,-0.0061,-0.0084,-0.0227,-0.028,-0.0192,-0.023,-0.0225,-0.022,-0.0289,-0.029,-0.0291,-0.0292,0,0.0575,0.0608,0.0652,0.0751,0.0834,0.0939,0.1033,0.1097,0.115,0.1177,0.1182,0.1106,0.08,0.0503,0.0129,-0.0069,-0.0185,-0.0258,-0.0184,-0.0255,-0.0223,-0.0258,-0.0252,-0.0301,-0.03,-0.0299,-0.0299,-0.0299,0.0609,0.0648,0.072,0.0812,0.0919,0.1045,0.1135,0.1211,0.1301,0.1329,0.1271,0.1159,0.082,0.0317,0.001,-0.0271,-0.0274,-0.0378,-0.0372,-0.0366,-0.037,-0.0344,-0.0443,-0.0442,-0.0442,-0.0442,-0.0442,0,0.0643,0.0695,0.0781,0.0907,0.1019,0.1072,0.1227,0.1294,0.1377,0.1391,0.1365,0.1024,0.0665,0.0331,-0.011,-0.0402,-0.041,-0.0468,-0.0416,-0.0408,-0.04,-0.0403,-0.0486,-0.0486,-0.0486,-0.0487,0,0,0.067,0.0747,0.0785,0.096,0.1058,0.1221,0.1307,0.1381,0.1427,0.1419,0.1367,0.1187,0.0751,0.042,0.0016,-0.0206,-0.0225,-0.0253,-0.0199,-0.0084,-0.0071,-0.0344,-0.034,0,0,0,0,0]}],[{"header":{"parameterUnit":"m.s-1","parameterCategory":2,"la1":30.2991,"la2":30.254,"lo1":-89.0895,"lo2":-89.0444,"dy":0.0017,"dx":0.0017,"nx":28,"ny":28,"refTime":"2024-09-28T03:00:00:Z","depth":"4","parameterNumber":2,"parameterNumberName":"U-component_of_CURRENTS"},"data":[0,0,0,0,0,0,0,0,0,0,0,0,0,0,0,0,0,0,0,0,0,0,0,0,0,0,0,0,0,0,0,0,0,0,0,0,0,0,0,0,0,0,0,0,0,0,0,0,0,0,0,0,0,0,0,0,0,0,0.0674,0.0675,0,0.074,0.074,0.074,0.0766,0.0767,0.0767,0.0768,0.0776,0.0776,0.0775,0,0,0,0,0,0,0,0,0,0,0,0,0,0.0571,0.0572,0.0674,0.0675,0.0677,0.074,0.074,0.074,0.0766,0.0767,0.0767,0.0768,0.0776,0.0776,0.0775,0,0,0,0,0,0,0,0,0,0,0,0,0,0.0616,0.0572,0.0673,0.0703,0.0707,0.074,0.074,0.074,0.0766,0.0767,0.0768,0.0768,0.0776,0.0776,0.0775,0.0756,0,0,0.0774,0.0774,0,0,0,0,0,0,0,0,0.0614,0.0619,0.0697,0.0701,0.0706,0.0753,0.0707,0.0745,0.0766,0.0735,0.0768,0.0769,0.0767,0.0767,0.0768,0.0756,0.0757,0.0774,0.0774,0.0773,0.0773,0,0,0,0,0,0,0,0.061,0.0616,0.0692,0.0699,0.0704,0.0714,0.072,0.0714,0.0738,0.0738,0.0742,0.0762,0.0768,0.0768,0.0768,0.0757,0.0774,0.0773,0.0773,0.0773,0.0789,0.079,0,0,0,0,0,0,0.0617,0.0613,0.069,0.0695,0.067,0.0716,0.0723,0.073,0.074,0.0745,0.0761,0.0763,0.0768,0.0769,0.0768,0.0807,0.0773,0.0773,0.0773,0.0788,0.0789,0.079,0,0,0,0,0,0,0.0614,0.0623,0.0687,0.0662,0.0672,0.0717,0.0725,0.0731,0.0759,0.076,0.0762,0.0787,0.0769,0.0769,0.078,0.0805,0.0773,0.0772,0.0787,0.0789,0.0789,0.0845,0,0,0,0,0,0,0.0611,0.0621,0.0626,0.0663,0.0674,0.0715,0.0726,0.0732,0.0772,0.0775,0.0782,0.0782,0.077,0.0781,0.078,0.0804,0.0772,0.0787,0.0788,0.0789,0.0843,0.0848,0.0853,0,0,0,0,0,0.0607,0.0618,0.0626,0.0636,0.0681,0.0717,0.0722,0.0752,0.0773,0.078,0.079,0.0783,0.0789,0.0781,0.0779,0.0804,0.0786,0.0788,0.0789,0.084,0.0847,0.0853,0,0,0,0,0,0,0.0579,0.0623,0.0633,0.0656,0.0688,0.0724,0.0745,0.0767,0.0781,0.0791,0.0788,0.0788,0.0804,0.0795,0.0787,0.0812,0.0788,0.0789,0.0827,0.0834,0.0839,0.0861,0.0772,0,0,0,0,0,0.0575,0.0602,0.0634,0.0662,0.0674,0.0712,0.0734,0.0756,0.0779,0.0789,0.0802,0.0808,0.0804,0.0814,0.0805,0.0821,0.0819,0.0837,0.0842,0.0846,0.0863,0.0893,0.0903,0.0795,0.0795,0.0795,0,0,0.0581,0.0609,0.0626,0.066,0.0687,0.0712,0.0726,0.0769,0.0785,0.0785,0.0816,0.0823,0.081,0.0824,0.0832,0.0826,0.087,0.0848,0.0852,0.0867,0.0896,0.0907,0.0917,0.0796,0.0796,0.0796,0,0,0.0601,0.0621,0.064,0.0663,0.0709,0.0732,0.075,0.0795,0.0802,0.0831,0.0833,0.0865,0.0866,0.0871,0.0868,0.0898,0.089,0.0896,0.0951,0.098,0.099,0.0998,0.0984,0.0991,0.0908,0.0908,0.0908,0,0.0603,0.0631,0.0654,0.0673,0.07,0.0745,0.0766,0.0778,0.0825,0.0807,0.0847,0.0891,0.0888,0.0908,0.0928,0.0912,0.0916,0.0928,0.0989,0.0997,0.1005,0.0989,0.0996,0.0911,0.091,0.091,0.091,0,0.061,0.0653,0.0673,0.0712,0.0732,0.0771,0.0788,0.0821,0.0854,0.0837,0.0875,0.0925,0.0963,0.0964,0.0959,0.1014,0.0992,0.0986,0.0977,0.102,0.0998,0.1005,0.0915,0.0914,0.0913,0.0912,0,0,0.0596,0.0662,0.0679,0.0693,0.0756,0.0766,0.0807,0.0806,0.0817,0.0872,0.0907,0.0942,0.0993,0.1,0.1038,0.1075,0.1129,0.1071,0.1071,0.1063,0.1173,0.1098,0.1097,0.1144,0.1146,0.1148,0.1126,0,0.0607,0.064,0.0678,0.0727,0.0743,0.0794,0.0813,0.081,0.0838,0.0877,0.092,0.0965,0.0996,0.1075,0.1119,0.1123,0.1153,0.1133,0.1128,0.1127,0.1062,0.1106,0.1154,0.1131,0.1132,0.1133,0.1134,0,0.0605,0.0629,0.065,0.0715,0.0722,0.076,0.0802,0.083,0.0855,0.0877,0.0963,0.1004,0.1096,0.1144,0.1204,0.1196,0.1204,0.1203,0.1201,0.1123,0.1066,0.1084,0.1145,0.1144,0.1144,0.1143,0.1142,0,0.0553,0.0627,0.0632,0.0649,0.0704,0.0734,0.0794,0.0815,0.0818,0.0923,0.0977,0.1054,0.1147,0.1199,0.1206,0.123,0.1232,0.1256,0.1186,0.1178,0.1226,0.1217,0.1303,0.1303,0.1303,0.1303,0.1303,0,0.0546,0.0569,0.0612,0.0614,0.0618,0.0694,0.0707,0.0787,0.0878,0.0857,0.1012,0.1082,0.1173,0.1184,0.1207,0.1193,0.1234,0.1206,0.1183,0.1243,0.1237,0.1228,0.122,0.1302,0.1302,0.1303,0.1303,0,0.05,0.0526,0.0532,0.0583,0.059,0.0604,0.0677,0.0697,0.0825,0.0871,0.093,0.1071,0.1123,0.1152,0.1177,0.1171,0.117,0.1143,0.116,0.1135,0.1104,0.1099,0.1124,0.1121,0.1119,0.1118,0.1116,0,0.0476,0.0466,0.048,0.0462,0.0496,0.0515,0.0528,0.0651,0.0686,0.0835,0.0871,0.0975,0.104,0.105,0.1074,0.1093,0.1091,0.107,0.1162,0.1119,0.1094,0.1092,0.1089,0.1113,0.1112,0.1112,0.1111,0,0.0394,0.0394,0.0393,0.0395,0.04,0.0387,0.0457,0.0475,0.0599,0.0687,0.0831,0.0921,0.0957,0.1018,0.0999,0.1015,0.1089,0.105,0.1057,0.1144,0.1105,0.1082,0.1082,0.1104,0.1105,0.1106,0.1106,0,0.0314,0.0316,0.0311,0.0327,0.0331,0.0344,0.0353,0.0439,0.0499,0.07,0.069,0.0851,0.0909,0.097,0.0948,0.0961,0.1013,0.1023,0.1033,0.1041,0.1026,0.0965,0.0914,0,0,0,0,0,0.0217,0.023,0.0243,0.0273,0.0308,0.0325,0.0342,0.0363,0.0446,0.0541,0.0642,0.0698,0.0803,0.0876,0.0886,0.0896,0.0973,0.09,0.0979,0.1064,0.1072,0.1063,0,0,0,0,0,0,0.015,0.0129,0.0214,0.0244,0.0293,0.0322,0.0351,0.0393,0.0461,0.0551,0.0623,0.0688,0.0792,0.0813,0.0894,0.0901,0.0944,0.0963,0.0962,0.1059,0.1067,0.1073,0.1067,0,0,0,0,0]},{"header":{"parameterUnit":"m.s-1","parameterCategory":2,"la1":30.2991,"la2":30.254,"lo1":-89.0895,"lo2":-89.0444,"dy":0.0017,"dx":0.0017,"nx":28,"ny":28,"refTime":"2024-09-28T03:00:00:Z","depth":"4","parameterNumber":3,"parameterNumberName":"V-component_of_CURRENTS"},"data":[0,0,0,0,0,0,0,0,0,0,0,0,0,0,0,0,0,0,0,0,0,0,0,0,0,0,0,0,0,0,0,0,0,0,0,0,0,0,0,0,0,0,0,0,0,0,0,0,0,0,0,0,0,0,0,0,0,0,-0.0085,-0.0086,0,-0.0134,-0.0135,-0.0135,-0.0146,-0.0146,-0.0145,-0.0145,-0.0247,-0.025,-0.0253,0,0,0,0,0,0,0,0,0,0,0,0,0,-0.0014,-0.0015,-0.0085,-0.0086,-0.0086,-0.0134,-0.0135,-0.0136,-0.0146,-0.0146,-0.0145,-0.0145,-0.0246,-0.0249,-0.0253,0,0,0,0,0,0,0,0,0,0,0,0,0,-0.0052,-0.0015,-0.0085,-0.0097,-0.0098,-0.0134,-0.0135,-0.0136,-0.0146,-0.0146,-0.0145,-0.0144,-0.0244,-0.0249,-0.0254,-0.0295,0,0,-0.0268,-0.027,0,0,0,0,0,0,0,0,-0.005,-0.0055,-0.0094,-0.0096,-0.0098,-0.0133,-0.0147,-0.0191,-0.0146,-0.0129,-0.0145,-0.0144,-0.0214,-0.0221,-0.0231,-0.0299,-0.0304,-0.0268,-0.0271,-0.0273,-0.0274,0,0,0,0,0,0,0,-0.0048,-0.0053,-0.0105,-0.0095,-0.0097,-0.0104,-0.0109,-0.0155,-0.0175,-0.013,-0.0131,-0.0136,-0.0215,-0.0227,-0.0234,-0.0305,-0.0268,-0.0272,-0.0275,-0.0277,-0.0377,-0.0377,0,0,0,0,0,0,-0.0041,-0.0051,-0.0103,-0.0106,-0.0071,-0.0106,-0.0111,-0.0123,-0.0174,-0.018,-0.0136,-0.0136,-0.0219,-0.0229,-0.0238,-0.0283,-0.0273,-0.0277,-0.028,-0.0378,-0.0377,-0.0377,0,0,0,0,0,0,-0.0039,-0.0045,-0.0101,-0.0079,-0.0086,-0.0108,-0.012,-0.0124,-0.0133,-0.0178,-0.0185,-0.0141,-0.0219,-0.0231,-0.0269,-0.0288,-0.0279,-0.0284,-0.0378,-0.0378,-0.0377,-0.0379,0,0,0,0,0,0,-0.0037,-0.0045,-0.0051,-0.0079,-0.0087,-0.0123,-0.0121,-0.0125,-0.0137,-0.0137,-0.0185,-0.0194,-0.022,-0.0261,-0.0273,-0.0294,-0.0287,-0.0378,-0.0378,-0.0377,-0.0379,-0.0379,-0.0379,0,0,0,0,0,-0.0034,-0.0051,-0.0051,-0.0058,-0.0096,-0.0124,-0.0129,-0.0142,-0.0138,-0.0147,-0.0169,-0.0192,-0.0268,-0.0265,-0.0279,-0.0302,-0.0378,-0.0378,-0.0377,-0.0379,-0.0379,-0.0379,0,0,0,0,0,0,-0.0028,-0.0054,-0.0055,-0.0079,-0.0097,-0.0125,-0.0136,-0.0142,-0.0166,-0.0166,-0.0199,-0.021,-0.025,-0.027,-0.0266,-0.0325,-0.0324,-0.0327,-0.0321,-0.0321,-0.0321,-0.0326,-0.0291,0,0,0,0,0,-0.0028,-0.0045,-0.0067,-0.0087,-0.0094,-0.0112,-0.0125,-0.0134,-0.0158,-0.0167,-0.0197,-0.0227,-0.0261,-0.0284,-0.0317,-0.0358,-0.0382,-0.0376,-0.0376,-0.0376,-0.0387,-0.0423,-0.0427,-0.0376,-0.0376,-0.0376,0,0,-0.0031,-0.0048,-0.0057,-0.0086,-0.01,-0.0112,-0.0119,-0.0139,-0.0159,-0.0177,-0.0213,-0.0233,-0.027,-0.0309,-0.0329,-0.033,-0.0403,-0.0376,-0.0376,-0.0387,-0.0423,-0.0428,-0.0433,-0.0376,-0.0376,-0.0376,0,0,-0.0043,-0.0059,-0.0071,-0.0084,-0.0104,-0.0117,-0.012,-0.0146,-0.0168,-0.02,-0.0215,-0.0243,-0.0295,-0.0326,-0.0348,-0.0368,-0.0399,-0.0372,-0.0384,-0.0419,-0.0424,-0.0428,-0.0467,-0.0476,-0.0373,-0.0373,-0.0373,0,-0.0042,-0.0057,-0.0079,-0.009,-0.0098,-0.0115,-0.0123,-0.0156,-0.0191,-0.0224,-0.021,-0.0276,-0.0307,-0.036,-0.0361,-0.0373,-0.0392,-0.0385,-0.042,-0.0425,-0.043,-0.0469,-0.0478,-0.0373,-0.0373,-0.0373,-0.0373,0,-0.0058,-0.0064,-0.0073,-0.0088,-0.0106,-0.0116,-0.0152,-0.018,-0.0198,-0.0235,-0.0286,-0.0309,-0.0342,-0.0358,-0.0371,-0.0419,-0.0423,-0.0415,-0.0424,-0.0436,-0.0475,-0.0485,-0.0373,-0.0373,-0.0373,-0.0373,0,0,-0.0058,-0.0077,-0.0075,-0.0076,-0.01,-0.0116,-0.0159,-0.0211,-0.024,-0.0281,-0.031,-0.0373,-0.0375,-0.0397,-0.0407,-0.0444,-0.0495,-0.0442,-0.0444,-0.0487,-0.0575,-0.0505,-0.0509,-0.049,-0.0492,-0.0493,-0.0591,0,-0.0052,-0.0061,-0.0078,-0.0084,-0.0087,-0.0119,-0.0158,-0.0215,-0.0255,-0.0291,-0.0344,-0.0366,-0.0394,-0.0379,-0.0429,-0.05,-0.0519,-0.047,-0.0552,-0.0555,-0.0496,-0.0517,-0.0498,-0.0598,-0.06,-0.0602,-0.0603,0,-0.0048,-0.0056,-0.0059,-0.0077,-0.0082,-0.0091,-0.0141,-0.0173,-0.0253,-0.029,-0.0333,-0.0351,-0.0434,-0.04,-0.0552,-0.052,-0.0535,-0.0574,-0.0578,-0.052,-0.0502,-0.0583,-0.062,-0.0619,-0.0618,-0.0616,-0.0615,0,-0.002,-0.0035,-0.0034,-0.0039,-0.0073,-0.0087,-0.0097,-0.0172,-0.0216,-0.0258,-0.0262,-0.0377,-0.0393,-0.0481,-0.0566,-0.0561,-0.0698,-0.07,-0.0644,-0.064,-0.0675,-0.0669,-0.0735,-0.0734,-0.0734,-0.0734,-0.0734,0,0.0004,0.0004,-0.0018,-0.0013,-0.0034,-0.0051,-0.0083,-0.0117,-0.0162,-0.0207,-0.0229,-0.0248,-0.0405,-0.0487,-0.0572,-0.066,-0.0709,-0.0657,-0.0661,-0.0673,-0.0665,-0.0683,-0.0675,-0.0738,-0.0737,-0.0736,-0.0735,0,0.0035,0.0023,0.0016,-0.0006,-0.0018,-0.0024,-0.0064,-0.0094,-0.0109,-0.0141,-0.0137,-0.0206,-0.0313,-0.0438,-0.0591,-0.0646,-0.0741,-0.0715,-0.0729,-0.073,-0.0664,-0.0656,-0.0724,-0.0722,-0.0721,-0.072,-0.0719,0,0.0048,0.0049,0.0027,0.0009,0.0003,-0.0017,-0.0045,-0.0079,-0.0103,-0.0117,-0.012,-0.0171,-0.0226,-0.0388,-0.0539,-0.0697,-0.0666,-0.0724,-0.0693,-0.0667,-0.0664,-0.0658,-0.0651,-0.0716,-0.0716,-0.0716,-0.0715,0,0.0046,0.0039,0.0034,0.0031,0.0007,-0.004,-0.0051,-0.0062,-0.0091,-0.0103,-0.0077,-0.0115,-0.0199,-0.0354,-0.0439,-0.0552,-0.0733,-0.071,-0.0713,-0.0684,-0.0658,-0.0656,-0.0651,-0.071,-0.0711,-0.0711,-0.0712,0,0.0027,0.0039,0.0041,0.0035,0.0006,-0.0026,-0.0049,-0.0048,-0.0064,-0.0047,-0.0058,-0.0094,-0.0165,-0.0273,-0.0386,-0.0476,-0.0494,-0.0523,-0.0537,-0.0544,-0.045,-0.0388,-0.0368,0,0,0,0,0,-0.0005,0.0024,0.0037,0.0036,0.0018,0.001,-0.0046,-0.0068,-0.0076,-0.0037,-0.0037,-0.0086,-0.0182,-0.0229,-0.03,-0.0398,-0.0551,-0.0488,-0.0602,-0.0683,-0.0689,-0.0601,0,0,0,0,0,0,-0.0022,-0.0012,0.0042,0.0033,0.006,0.0032,0.0008,-0.0011,0.0012,0.0013,-0.0029,-0.0058,-0.0161,-0.01,-0.0269,-0.0304,-0.038,-0.0543,-0.0544,-0.068,-0.0685,-0.069,-0.0602,0,0,0,0,0]}]]